• In Belarus
  • List of Countries
  • For 7 days
  • Water Temperature
  • Satellite Maps
  • Weather Map
  • Weather Widgets
  • user-avatar
    Login

    Hourly Weather Bansko

    Today, 21 January, Monday

    Time Temperature Precipitation Wind Pressure Humidity
    00:00 +3°C° 0 mm 1 mps 719 mmHg 86%
    01:00 +3°C° 0 mm 1 mps 719 mmHg 85%
    02:00 +2°C° 0 mm 1 mps 719 mmHg 84%
    03:00 +2°C° 0 mm 1 mps 719 mmHg 83%
    04:00 +2°C° 0 mm 1 mps 719 mmHg 82%
    05:00 +2°C° 0 mm 1 mps 719 mmHg 82%
    06:00 +2°C° 0 mm 1 mps 719 mmHg 81%
    07:00 +2°C° 0 mm 1 mps 719 mmHg 80%
    08:00 +2°C° 0 mm 1 mps 719 mmHg 80%
    09:00 +4°C° 0 mm 1 mps 720 mmHg 79%
    10:00 +5°C° 0 mm 1 mps 720 mmHg 79%
    11:00 +7°C° 0 mm 1 mps 720 mmHg 78%
    12:00 +8°C° 0 mm 1 mps 720 mmHg 77%
    13:00 +8°C° 0 mm 1 mps 720 mmHg 76%
    14:00 +8°C° 0 mm 0 mps 720 mmHg 75%
    15:00 +6°C° 0 mm 0 mps 720 mmHg 78%
    16:00 +5°C° 0 mm 0 mps 720 mmHg 81%
    17:00 +4°C° 0 mm 0 mps 720 mmHg 84%
    18:00 +5°C° 0 mm 1 mps 720 mmHg 84%
    19:00 +4°C° 0 mm 1 mps 720 mmHg 85%
    20:00 +3°C° 0 mm 1 mps 720 mmHg 85%
    21:00 +3°C° 0 mm 1 mps 721 mmHg 85%
    22:00 +3°C° 0 mm 1 mps 721 mmHg 85%
    23:00 +3°C° 0 mm 1 mps 721 mmHg 85%

    Tomorrow, 22 January, Tuesday

    Time Temperature Precipitation Wind Pressure Humidity
    00:00 +3°C° 0 mm 1 mps 721 mmHg 86%
    01:00 +3°C° 0 mm 1 mps 721 mmHg 86%
    02:00 +3°C° 0 mm 1 mps 720 mmHg 87%
    03:00 +4°C° 0.1 mm 1 mps 720 mmHg 87%
    04:00 +4°C° 0.1 mm 1 mps 720 mmHg 87%
    05:00 +4°C° 0.1 mm 1 mps 720 mmHg 88%
    06:00 +4°C° 0.1 mm 1 mps 719 mmHg 88%
    07:00 +4°C° 0.1 mm 1 mps 719 mmHg 88%
    08:00 +3°C° 0.1 mm 2 mps 719 mmHg 88%
    09:00 +5°C° 0.1 mm 2 mps 719 mmHg 86%
    10:00 +6°C° 0.1 mm 2 mps 719 mmHg 85%
    11:00 +7°C° 0.1 mm 2 mps 719 mmHg 84%
    12:00 +7°C° 0.1 mm 3 mps 718 mmHg 83%
    13:00 +7°C° 0.1 mm 3 mps 717 mmHg 82%
    14:00 +8°C° 0.1 mm 3 mps 717 mmHg 82%
    15:00 +7°C° 0 mm 3 mps 716 mmHg 84%
    16:00 +5°C° 0 mm 3 mps 716 mmHg 87%
    17:00 +6°C° 0 mm 2 mps 715 mmHg 89%
    18:00 +5°C° 0 mm 2 mps 715 mmHg 89%
    19:00 +5°C° 0 mm 2 mps 714 mmHg 89%
    20:00 +5°C° 0 mm 2 mps 714 mmHg 89%
    21:00 +3°C° 0.1 mm 3 mps 713 mmHg 89%
    22:00 +3°C° 0.1 mm 3 mps 713 mmHg 89%
    23:00 +3°C° 0.1 mm 3 mps 712 mmHg 89%

    Day after tomorrow, 23 January, Wednesday

    Time Temperature Precipitation Wind Pressure Humidity
    00:00 +4°C° 0.3 mm 3 mps 712 mmHg 89%
    01:00 +5°C° 0.3 mm 2 mps 711 mmHg 90%
    02:00 +5°C° 0.3 mm 2 mps 711 mmHg 91%
    03:00 +5°C° 0 mm 2 mps 711 mmHg 91%
    04:00 +5°C° 0 mm 2 mps 710 mmHg 91%
    05:00 +5°C° 0 mm 2 mps 710 mmHg 92%
    06:00 +4°C° 0 mm 2 mps 710 mmHg 91%
    07:00 +4°C° 0 mm 2 mps 710 mmHg 91%
    08:00 +4°C° 0 mm 2 mps 711 mmHg 90%
    09:00 +5°C° 0 mm 2 mps 711 mmHg 87%
    10:00 +5°C° 0 mm 3 mps 711 mmHg 84%
    11:00 +7°C° 0 mm 3 mps 711 mmHg 81%
    12:00 +8°C° 0.1 mm 3 mps 711 mmHg 79%
    13:00 +8°C° 0.1 mm 3 mps 710 mmHg 77%
    14:00 +8°C° 0.1 mm 3 mps 710 mmHg 75%
    15:00 +8°C° 0 mm 3 mps 710 mmHg 78%
    16:00 +7°C° 0 mm 2 mps 710 mmHg 81%
    17:00 +6°C° 0 mm 2 mps 710 mmHg 85%
    18:00 +5°C° 0 mm 2 mps 710 mmHg 86%
    19:00 +5°C° 0 mm 2 mps 710 mmHg 87%
    20:00 +4°C° 0 mm 2 mps 710 mmHg 88%
    21:00 +5°C° 0.1 mm 1 mps 710 mmHg 87%
    22:00 +5°C° 0.1 mm 1 mps 710 mmHg 87%
    23:00 +5°C° 0.1 mm 1 mps 709 mmHg 86%

    24 January, Thursday

    Time Temperature Precipitation Wind Pressure Humidity
    00:00 +6°C° 0.6 mm 1 mps 709 mmHg 86%
    01:00 +6°C° 0.6 mm 1 mps 709 mmHg 86%
    02:00 +6°C° 0.6 mm 1 mps 708 mmHg 86%
    03:00 +6°C° 0.6 mm 1 mps 708 mmHg 87%
    04:00 +6°C° 0.6 mm 1 mps 707 mmHg 88%
    05:00 +6°C° 0.6 mm 1 mps 707 mmHg 89%
    06:00 +6°C° 0.2 mm 1 mps 707 mmHg 89%
    07:00 +6°C° 0.2 mm 1 mps 707 mmHg 88%
    08:00 +5°C° 0.2 mm 2 mps 707 mmHg 88%
    09:00 +5°C° 0.1 mm 2 mps 707 mmHg 88%
    10:00 +6°C° 0.1 mm 2 mps 707 mmHg 87%
    11:00 +7°C° 0.1 mm 3 mps 707 mmHg 86%
    12:00 +7°C° 0.5 mm 2 mps 707 mmHg 86%
    13:00 +7°C° 0.5 mm 2 mps 706 mmHg 86%
    14:00 +7°C° 0.5 mm 2 mps 706 mmHg 86%
    15:00 +6°C° 0.4 mm 2 mps 706 mmHg 87%
    16:00 +6°C° 0.4 mm 2 mps 706 mmHg 87%
    17:00 +6°C° 0.4 mm 2 mps 706 mmHg 87%
    18:00 +5°C° 0.4 mm 2 mps 706 mmHg 87%
    19:00 +5°C° 0.4 mm 2 mps 706 mmHg 88%
    20:00 +5°C° 0.4 mm 2 mps 707 mmHg 88%
    21:00 +5°C° 0.6 mm 2 mps 707 mmHg 88%
    22:00 +5°C° 0.6 mm 2 mps 707 mmHg 89%
    23:00 +4°C° 0.6 mm 2 mps 708 mmHg 89%

    25 January, Friday

    Time Temperature Precipitation Wind Pressure Humidity
    00:00 +4°C° 1 mm 2 mps 708 mmHg 89%
    01:00 +5°C° 1 mm 1 mps 708 mmHg 90%
    02:00 +5°C° 1 mm 1 mps 708 mmHg 90%
    03:00 +5°C° 1.2 mm 1 mps 708 mmHg 90%
    04:00 +5°C° 1.2 mm 1 mps 708 mmHg 90%
    05:00 +5°C° 1.2 mm 1 mps 708 mmHg 90%
    06:00 +5°C° 0 mm 1 mps 709 mmHg 90%
    07:00 +5°C° 0 mm 1 mps 709 mmHg 89%
    08:00 +5°C° 0 mm 1 mps 709 mmHg 88%
    09:00 +5°C° 0.1 mm 1 mps 709 mmHg 89%
    10:00 +5°C° 0.1 mm 2 mps 709 mmHg 89%
    11:00 +6°C° 0.1 mm 2 mps 709 mmHg 89%
    12:00 +6°C° 1.1 mm 2 mps 709 mmHg 90%
    13:00 +5°C° 1.1 mm 2 mps 709 mmHg 91%
    14:00 +5°C° 1.1 mm 2 mps 708 mmHg 92%
    15:00 +5°C° 0.8 mm 2 mps 708 mmHg 91%
    16:00 +4°C° 0.8 mm 2 mps 708 mmHg 91%
    17:00 +4°C° 0.8 mm 2 mps 708 mmHg 91%
    18:00 +3°C° 0.7 mm 2 mps 708 mmHg 92%
    19:00 +2°C° 0.7 mm 2 mps 709 mmHg 92%
    20:00 +2°C° 0.7 mm 2 mps 709 mmHg 93%
    21:00 +1°C° 0.2 mm 2 mps 709 mmHg 93%
    22:00 +1°C° 0.2 mm 2 mps 710 mmHg 92%
    23:00 +1°C° 0.2 mm 2 mps 710 mmHg 92%

    26 January, Saturday

    Time Temperature Precipitation Wind Pressure Humidity
    00:00 -1°C° 0 mm 2 mps 710 mmHg 92%
    01:00 -1°C° 0 mm 2 mps 710 mmHg 91%
    02:00 -1°C° 0 mm 2 mps 710 mmHg 91%
    03:00 -2°C° 0 mm 2 mps 710 mmHg 90%
    04:00 -2°C° 0 mm 2 mps 710 mmHg 90%
    05:00 -2°C° 0 mm 2 mps 710 mmHg 89%
    06:00 -2°C° 0 mm 2 mps 711 mmHg 89%
    07:00 -2°C° 0 mm 2 mps 711 mmHg 88%
    08:00 -2°C° 0 mm 2 mps 711 mmHg 87%
    09:00 -1°C° 0 mm 3 mps 712 mmHg 86%
    10:00 0°C° 0 mm 3 mps 712 mmHg 84%
    11:00 +1°C° 0 mm 3 mps 712 mmHg 82%
    12:00 +2°C° 0.1 mm 3 mps 712 mmHg 83%
    13:00 +2°C° 0.1 mm 3 mps 712 mmHg 83%
    14:00 +1°C° 0.1 mm 4 mps 712 mmHg 84%
    15:00 +2°C° 0.1 mm 3 mps 712 mmHg 85%
    16:00 +1°C° 0.1 mm 3 mps 712 mmHg 86%
    17:00 +1°C° 0.1 mm 3 mps 712 mmHg 87%
    18:00 0°C° 0.1 mm 3 mps 712 mmHg 87%
    19:00 0°C° 0.1 mm 3 mps 713 mmHg 88%
    20:00 +1°C° 0.1 mm 2 mps 713 mmHg 89%
    21:00 -1°C° 0.1 mm 2 mps 713 mmHg 89%
    22:00 -1°C° 0.1 mm 2 mps 713 mmHg 89%
    23:00 -1°C° 0.1 mm 2 mps 713 mmHg 89%
    Show more